Split Airport

Airport
ICAO code: 
LDSP
IATA Code: 
SPU
Summary
ICAO Region: 
EUR
Territory: 
Location: 
Kastela, Dalmatia
Serving: 
Split
Elevation: 
78 ft
Coordinates: 
Aerial View: 
43° 32' 20.034" N, 16° 17' 52.801" E
Metar
Observation
LDSP 251230Z 12012KT CAVOK 27/14 Q1013 NOSIG
Station
Split / Resnik
Date/Time
2022-05-25 12:30:00
Wind direction
120°
Wind speed
12 kts
Lowest cloud amount
clouds and visibility OK
Temperature
27°C
Dew point
14°C
Humidity
44%
QNH
1013 hPa
Weather condition
n/a

Description

International airport serving Split, Croatia.

Climatology

Dry-summer subtropical ”Mediterranean" climate (Köppen climate classification Csa)

Runways

Designator Length Width Surface Rops
5/23 2550 45 ASP Yes/Yes
Airport map: 
Aerial View: 

SKYbrary Partners:

Safety knowledge contributed by: